Location: Zagreb
(45.8150°N, 15.9819°E)
Time: 18:54:46
(UTC+01:00)

STARLINK-1686 - Pass Details

Date: 21 September 2020
Orbit: 378 x 381 km, 53.0° (Epoch: 27 October)

Event Time Altitude Azimuth Distance (km) Brightness Sun altitude
Exits shadow 04:51:24 25° 337° (NNW) 865 4.6 -19.6°
Maximum altitude 04:51:46 25° 349° (N) 850 4.7 -19.5°
Drops below altitude 10° 04:54:34 10° 48° (NE) 1,458 6.8 -19.1°
Sets 04:56:49 0° 62° (ENE) 2,296 8.4 -18.7°
